Papa, Hungary

8:49 AM CEST on September 23, 2017 (GMT +0200)
Papa

Weather History for LHPA - December, 2013

Change the Weather History Date:

Tuesday, December 31, 2013

  Actual Average Record
Temperature  
Mean Temperature 40 °F -  
Max Temperature 46 °F - - ()
Min Temperature 35 °F - - ()
Degree Days  
Heating Degree Days 24    
Moisture  
Dew Point 36 °F    
Average Humidity 90    
Maximum Humidity 100    
Minimum Humidity 65    
Precipitation  
Precipitation 0.00 in - - ()
Sea Level Pressure  
Sea Level Pressure 30.24 in    
Wind  
Wind Speed 2 mph ()    
Max Wind Speed 13 mph    
Max Gust Speed -    
Visibility 4.5 miles    
Events Rain    
T = Trace of Precipitation, MM = Missing Value Source: Averaged Metar Reports

Daily Weather History Graph

Daily Weather History Graph

Search for Another Location

Airport or City:

Trip Planner

Search our weather history database for the weather conditions in past years. The results will help you decide how hot, cold, wet, or windy it might be!

Date:

Astronomy

Dec. 31, 2013 Rise Set
Actual Time 7:36 AM CET 4:09 PM CET
Civil Twilight 7:01 AM CET 4:45 PM CET
Nautical Twilight 6:22 AM CET 5:24 PM CET
Astronomical Twilight 5:45 AM CET 6:01 PM CET
Moon 6:08 AM CET (12/31) 3:29 PM CET (12/31)
Length of Visible Light 9h 44m
Length of Day
8h 33m
Waning Crescent, 2% of the Moon is Illuminated
Dec 31
Waning Crescent
Jan 1
New
Jan 8
First Quarter
Jan 16
Full
Jan 24
Last Quarter

Hourly Weather History & Observations

Time (CET) Temp. Windchill Dew Point Humidity Pressure Visibility Wind Dir Wind Speed Gust Speed Precip Events Conditions
12:15 AM 37.4 °F - 35.6 °F 93% 30.33 in - Calm Calm - N/A   Clear
12:45 AM 37.4 °F - 35.6 °F 93% 30.30 in - Calm Calm - N/A   Clear
1:15 AM 37.4 °F - 35.6 °F 93% 30.30 in 6.2 mi Calm Calm - N/A   Overcast
1:45 AM 35.6 °F - 35.6 °F 100% 30.30 in 6.2 mi Calm Calm - N/A   Overcast
2:15 AM 35.6 °F - 24.8 °F 65% 30.30 in 6.2 mi WNW 2.2 mph - N/A   Overcast
2:45 AM 37.4 °F - 35.6 °F 93% 30.30 in 6.2 mi Calm Calm - N/A   Overcast
3:15 AM 37.4 °F - 35.6 °F 93% 30.30 in 6.2 mi East 2.2 mph - N/A   Overcast
3:45 AM 37.4 °F - 35.6 °F 93% 30.30 in 6.2 mi Calm Calm - N/A   Overcast
4:15 AM 37.4 °F - 35.6 °F 93% 30.30 in - Calm Calm - N/A   Clear
4:45 AM 37.4 °F - 35.6 °F 93% 30.30 in 6.2 mi Calm Calm - N/A   Overcast
5:15 AM 35.6 °F - 35.6 °F 100% 30.27 in 6.2 mi NW 2.2 mph - N/A   Overcast
5:45 AM 37.4 °F - 35.6 °F 93% 30.27 in 6.2 mi NNE 2.2 mph - N/A   Overcast
6:15 AM 37.4 °F - 35.6 °F 93% 30.27 in 6.2 mi East 2.2 mph - N/A   Overcast
6:45 AM 37.4 °F - 35.6 °F 93% 30.27 in 6.2 mi Calm Calm - N/A   Overcast
7:15 AM 37.4 °F - 35.6 °F 93% 30.27 in 5.0 mi Calm Calm - N/A   Overcast
7:45 AM 37.4 °F - 35.6 °F 93% 30.27 in 5.0 mi Calm Calm - N/A   Overcast
8:15 AM 37.4 °F 33.9 °F 35.6 °F 93% 30.27 in 5.0 mi East 4.5 mph - N/A   Overcast
8:45 AM 39.2 °F - 35.6 °F 87% 30.27 in 6.2 mi Calm Calm - N/A   Overcast
9:15 AM 39.2 °F - 37.4 °F 93% 30.27 in 6.2 mi NW 2.2 mph - N/A   Overcast
9:45 AM 39.2 °F - 37.4 °F 93% 30.27 in 6.2 mi West 2.2 mph - N/A   Overcast
10:15 AM 41.0 °F - 37.4 °F 87% 30.27 in 5.0 mi Calm Calm - N/A Rain Light Rain
10:45 AM 41.0 °F - 39.2 °F 93% 30.27 in 5.0 mi North 2.2 mph - N/A Rain Light Rain
11:15 AM 41.0 °F 38.1 °F 37.4 °F 87% 30.27 in 5.0 mi NNW 4.5 mph - N/A Rain Light Rain
11:30 AM 42.8 °F 40.2 °F 39.2 °F 87% 30.24 in 5.0 mi WNW 4.5 mph - N/A   Mostly Cloudy
11:45 AM 42.8 °F - 39.2 °F 87% 30.24 in 6.2 mi North 2.2 mph - N/A   Mostly Cloudy
12:15 PM 42.8 °F - 39.2 °F 87% 30.21 in 6.2 mi NNW 2.2 mph - N/A   Mostly Cloudy
12:45 PM 44.6 °F - 39.2 °F 81% 30.21 in - North 2.2 mph - N/A   Clear
1:15 PM 44.6 °F - 39.2 °F 81% 30.21 in - West 2.2 mph - N/A   Clear
1:45 PM 44.6 °F 42.3 °F 39.2 °F 81% 30.21 in - WNW 4.5 mph - N/A   Clear
2:15 PM 46.4 °F 44.4 °F 35.6 °F 66% 30.21 in - NNE 4.5 mph - N/A   Clear
2:45 PM 42.8 °F 38.7 °F 39.2 °F 87% 30.18 in - NW 6.7 mph - N/A   Clear
3:15 PM 41.0 °F 36.5 °F 39.2 °F 93% 30.18 in 5.0 mi WNW 6.7 mph - N/A   Scattered Clouds
3:45 PM 39.2 °F 36.0 °F 37.4 °F 93% 30.18 in 3.7 mi WNW 4.5 mph - N/A   Mostly Cloudy
4:15 PM 41.0 °F 38.1 °F 37.4 °F 87% 30.18 in 3.7 mi North 4.5 mph - N/A   Mostly Cloudy
4:45 PM 39.2 °F - 35.6 °F 87% 30.21 in 3.7 mi East 2.2 mph - N/A   Mostly Cloudy
5:15 PM 39.2 °F 32.2 °F 35.6 °F 87% 30.21 in 3.7 mi SSE 11.2 mph - N/A   Mostly Cloudy
5:39 PM 37.4 °F 30.9 °F 35.6 °F 93% 30.21 in 3.1 mi SSE 8.9 mph - N/A   Mostly Cloudy
5:45 PM 37.4 °F 30.9 °F 35.6 °F 93% 30.21 in 3.1 mi SSE 8.9 mph - N/A   Mostly Cloudy
6:15 PM 37.4 °F 29.9 °F 35.6 °F 93% 30.21 in 3.1 mi SSE 11.2 mph - N/A   Mostly Cloudy
6:45 PM 37.4 °F 29.1 °F 35.6 °F 93% 30.21 in 2.5 mi SE 13.4 mph - N/A   Mostly Cloudy
7:15 PM 35.6 °F 30.0 °F 33.8 °F 93% 30.21 in 2.5 mi SSE 6.7 mph - N/A   Mostly Cloudy
7:45 PM 37.4 °F 30.9 °F 35.6 °F 93% 30.21 in 2.5 mi SSE 8.9 mph - N/A   Mostly Cloudy
8:11 PM 37.4 °F 30.9 °F 35.6 °F 93% 30.21 in 2.5 mi SSE 8.9 mph - N/A   Mostly Cloudy
8:15 PM 37.4 °F 32.2 °F 35.6 °F 93% 30.21 in 2.5 mi SSE 6.7 mph - N/A   Mostly Cloudy
8:45 PM 37.4 °F 33.9 °F 35.6 °F 93% 30.21 in 2.5 mi SSE 4.5 mph - N/A   Mostly Cloudy
9:15 PM 37.4 °F 33.9 °F 37.4 °F 100% 30.18 in 2.5 mi SE 4.5 mph - N/A   Mostly Cloudy
9:45 PM 39.2 °F 34.4 °F 37.4 °F 93% 30.18 in 2.5 mi SE 6.7 mph - N/A   Overcast
10:15 PM 39.2 °F 34.4 °F 37.4 °F 93% 30.18 in 2.5 mi SE 6.7 mph - N/A   Overcast
10:45 PM 39.2 °F 34.4 °F 37.4 °F 93% 30.18 in 2.5 mi SE 6.7 mph - N/A   Overcast
11:15 PM 39.2 °F 34.4 °F 37.4 °F 93% 30.18 in 2.5 mi SE 6.7 mph - N/A   Overcast
11:45 PM 39.2 °F 34.4 °F 37.4 °F 93% 30.15 in 2.5 mi SE 6.7 mph - N/A   Overcast